[[{"header":{"parameterUnit":"m.s-1","parameterCategory":1,"la1":30.2991,"la2":30.254,"lo1":-89.0895,"lo2":-89.0444,"dy":0.0017,"dx":0.0017,"nx":28,"ny":28,"refTime":"2023-10-15T09:00:00:Z","depth":0,"parameterNumber":2,"parameterNumberName":"U-component_of_WINDS"},"data":[0,0,0,0,0,0,0,0,0,0,0,0,0,0,0,0,0,0,0,0,0,0,0,0,0,0,0,0,0,0,0,0,0,0,0,0,0,0,0,0,0,0,0,0,0,0,0,0,0,0,0,0,0,0,0,0,0,0,-0.2629,-0.2631,0,-0.2773,-0.2775,-0.2776,-0.2763,-0.276,-0.2758,-0.2756,-0.2907,-0.2913,-0.2919,0,0,0,0,0,0,0,0,0,0,0,0,0,-0.2346,-0.2351,-0.2629,-0.2631,-0.2633,-0.2773,-0.2775,-0.2777,-0.2763,-0.276,-0.2757,-0.2755,-0.2905,-0.2912,-0.292,0,0,0,0,0,0,0,0,0,0,0,0,0,-0.2477,-0.2353,-0.2629,-0.2643,-0.2645,-0.2772,-0.2775,-0.2777,-0.2764,-0.276,-0.2757,-0.2754,-0.2903,-0.2912,-0.2921,-0.3044,0,0,-0.2949,-0.2953,0,0,0,0,0,0,0,0,-0.247,-0.2488,-0.2639,-0.2642,-0.2645,-0.2746,-0.273,-0.2867,-0.2764,-0.2719,-0.2756,-0.2752,-0.2857,-0.2869,-0.2904,-0.3052,-0.3058,-0.295,-0.2955,-0.2959,-0.2962,0,0,0,0,0,0,0,-0.2461,-0.2481,-0.2686,-0.2641,-0.2645,-0.2643,-0.2658,-0.2756,-0.2805,-0.2722,-0.2722,-0.2739,-0.2858,-0.2895,-0.2907,-0.306,-0.2949,-0.2957,-0.2963,-0.2967,-0.3317,-0.3321,0,0,0,0,0,0,-0.2448,-0.2474,-0.2681,-0.269,-0.2547,-0.265,-0.2667,-0.2717,-0.2804,-0.2814,-0.2741,-0.2738,-0.2881,-0.2897,-0.2913,-0.3064,-0.2959,-0.2968,-0.2973,-0.3313,-0.3318,-0.3322,0,0,0,0,0,0,-0.2442,-0.2466,-0.2676,-0.2582,-0.2608,-0.2659,-0.2715,-0.2722,-0.2759,-0.2818,-0.2827,-0.2771,-0.2879,-0.29,-0.3012,-0.3069,-0.2972,-0.298,-0.3309,-0.3315,-0.332,-0.3367,0,0,0,0,0,0,-0.2434,-0.2464,-0.2511,-0.2583,-0.2613,-0.2772,-0.2719,-0.2727,-0.2775,-0.2771,-0.2848,-0.2857,-0.2878,-0.2998,-0.3021,-0.308,-0.2987,-0.3304,-0.3311,-0.3318,-0.336,-0.3373,-0.3384,0,0,0,0,0,-0.2424,-0.252,-0.2514,-0.2539,-0.2673,-0.2775,-0.2792,-0.2813,-0.2779,-0.2827,-0.2865,-0.2855,-0.3058,-0.3009,-0.3035,-0.3098,-0.33,-0.3309,-0.3318,-0.3355,-0.3371,-0.3384,0,0,0,0,0,0,-0.2455,-0.2529,-0.2524,-0.2645,-0.2704,-0.2772,-0.2834,-0.2829,-0.29,-0.2893,-0.2917,-0.2935,-0.3048,-0.3084,-0.3028,-0.3222,-0.3175,-0.3189,-0.3195,-0.321,-0.3222,-0.3212,-0.2995,0,0,0,0,0,-0.2475,-0.2551,-0.2612,-0.2714,-0.2743,-0.2783,-0.2828,-0.2839,-0.2901,-0.2926,-0.2972,-0.3034,-0.3112,-0.3163,-0.3237,-0.3365,-0.3382,-0.342,-0.3432,-0.3442,-0.3454,-0.3525,-0.3543,-0.335,-0.335,-0.335,0,0,-0.252,-0.257,-0.2616,-0.2721,-0.2768,-0.2846,-0.2804,-0.2889,-0.2948,-0.294,-0.3048,-0.3084,-0.3154,-0.3274,-0.3329,-0.3308,-0.3511,-0.3453,-0.346,-0.3467,-0.3536,-0.3554,-0.357,-0.3356,-0.3355,-0.3354,0,0,-0.2641,-0.2685,-0.2775,-0.2822,-0.2892,-0.2918,-0.294,-0.3009,-0.3032,-0.3141,-0.3136,-0.3207,-0.334,-0.339,-0.3433,-0.3572,-0.3566,-0.3596,-0.366,-0.3728,-0.3743,-0.3757,-0.3808,-0.3825,-0.3608,-0.3608,-0.3608,0,-0.2687,-0.2804,-0.2822,-0.2908,-0.2955,-0.2948,-0.304,-0.3085,-0.3177,-0.321,-0.3184,-0.3351,-0.3397,-0.353,-0.3563,-0.3598,-0.3624,-0.3588,-0.3739,-0.3753,-0.3766,-0.3815,-0.3834,-0.3611,-0.3611,-0.361,-0.361,0,-0.2859,-0.294,-0.3004,-0.3091,-0.3145,-0.3234,-0.3266,-0.3318,-0.3324,-0.3353,-0.3464,-0.3519,-0.3605,-0.3637,-0.3644,-0.3771,-0.3755,-0.3734,-0.3687,-0.3788,-0.3834,-0.3852,-0.3616,-0.3615,-0.3614,-0.3613,0,0,-0.3005,-0.31,-0.3123,-0.3163,-0.3239,-0.3303,-0.3391,-0.3474,-0.3519,-0.3582,-0.3658,-0.377,-0.3751,-0.3799,-0.3812,-0.3872,-0.3979,-0.3843,-0.3845,-0.3868,-0.4123,-0.414,-0.4161,-0.3974,-0.3978,-0.3981,-0.4118,0,-0.3135,-0.329,-0.3308,-0.3446,-0.3522,-0.3517,-0.3594,-0.3649,-0.3679,-0.3748,-0.378,-0.386,-0.3828,-0.3857,-0.3916,-0.3954,-0.4031,-0.3944,-0.4046,-0.405,-0.4031,-0.4185,-0.4203,-0.4329,-0.4136,-0.4139,-0.4141,0,-0.3307,-0.3374,-0.352,-0.3585,-0.3618,-0.3687,-0.3764,-0.383,-0.3893,-0.391,-0.3964,-0.3968,-0.406,-0.4008,-0.4136,-0.4076,-0.4119,-0.4144,-0.4149,-0.4161,-0.4103,-0.4202,-0.437,-0.4389,-0.4169,-0.4167,-0.4165,0,-0.3401,-0.3527,-0.3631,-0.3665,-0.3744,-0.3792,-0.3828,-0.3887,-0.3936,-0.4003,-0.4035,-0.4113,-0.4156,-0.4217,-0.4243,-0.4202,-0.4369,-0.4319,-0.4387,-0.4387,-0.4424,-0.4422,-0.4603,-0.4449,-0.4449,-0.4448,-0.4448,0,-0.3545,-0.3635,-0.3674,-0.3738,-0.3838,-0.3858,-0.3957,-0.3991,-0.4044,-0.4115,-0.4115,-0.4182,-0.421,-0.4282,-0.4303,-0.4406,-0.4425,-0.4442,-0.4447,-0.4443,-0.4441,-0.4473,-0.4466,-0.4453,-0.4452,-0.4451,-0.445,0,-0.3668,-0.3697,-0.381,-0.3875,-0.3893,-0.3965,-0.4021,-0.4083,-0.411,-0.42,-0.4223,-0.4267,-0.4351,-0.4382,-0.4485,-0.4498,-0.4618,-0.4615,-0.4597,-0.4598,-0.4665,-0.4659,-0.4874,-0.4903,-0.4729,-0.473,-0.4732,0,-0.3759,-0.3827,-0.3899,-0.3946,-0.3983,-0.4058,-0.4107,-0.4129,-0.4181,-0.4258,-0.4311,-0.4394,-0.4462,-0.4597,-0.4639,-0.4718,-0.4717,-0.4787,-0.4729,-0.4724,-0.472,-0.4716,-0.4724,-0.4799,-0.48,-0.4802,-0.4803,0,-0.3917,-0.3928,-0.3998,-0.4074,-0.4132,-0.4193,-0.4252,-0.429,-0.4321,-0.4379,-0.4464,-0.4517,-0.4621,-0.4705,-0.4785,-0.4822,-0.4819,-0.482,-0.4841,-0.4839,-0.4826,-0.4835,-0.4628,-0.4816,-0.4815,-0.4814,-0.4813,-0.4813,-0.4028,-0.4088,-0.4148,-0.4227,-0.4273,-0.4328,-0.4389,-0.4424,-0.4495,-0.4581,-0.459,-0.4682,-0.4743,-0.4851,-0.4891,-0.4965,-0.4946,-0.4975,-0.4982,-0.4989,-0.4995,-0.4812,-0.4979,-0.4979,-0.4978,-0.4978,-0.4978,0,-0.4187,-0.4225,-0.4296,-0.4378,-0.444,-0.4429,-0.4493,-0.4546,-0.4627,-0.4684,-0.475,-0.4848,-0.4929,-0.4976,-0.5057,-0.5106,-0.5107,-0.5127,-0.5125,-0.5134,-0.5006,-0.4982,-0.5126,-0.5125,-0.5125,-0.5125,-0.5125,-0.5125,-0.4277,-0.438,-0.4398,-0.4524,-0.4561,-0.465,-0.4688,-0.4739,-0.4785,-0.4894,-0.496,-0.499,-0.5043,-0.5128,-0.5201,-0.5213,-0.5244,-0.5266,-0.5277,-0.5158,-0.5142,-0.5128,-0.5105,-0.5272,-0.5272,-0.5398,-0.5399,-0.54]},{"header":{"parameterUnit":"m.s-1","parameterCategory":1,"la1":30.2991,"la2":30.254,"lo1":-89.0895,"lo2":-89.0444,"dy":0.0017,"dx":0.0017,"nx":28,"ny":28,"refTime":"2023-10-15T09:00:00:Z","depth":0,"parameterNumber":3,"parameterNumberName":"V-component_of_WINDS"},"data":[0,0,0,0,0,0,0,0,0,0,0,0,0,0,0,0,0,0,0,0,0,0,0,0,0,0,0,0,0,0,0,0,0,0,0,0,0,0,0,0,0,0,0,0,0,0,0,0,0,0,0,0,0,0,0,0,0,0,-4.4812,-4.4813,0,-4.4924,-4.4925,-4.4926,-4.4835,-4.4831,-4.4828,-4.4824,-4.4935,-4.4942,-4.4948,0,0,0,0,0,0,0,0,0,0,0,0,0,-4.4514,-4.452,-4.4812,-4.4813,-4.4815,-4.4924,-4.4925,-4.4927,-4.4836,-4.4831,-4.4827,-4.4822,-4.4933,-4.4941,-4.4949,0,0,0,0,0,0,0,0,0,0,0,0,0,-4.4637,-4.4522,-4.4811,-4.4783,-4.4781,-4.4923,-4.4925,-4.4927,-4.4837,-4.4831,-4.4825,-4.482,-4.4931,-4.494,-4.495,-4.5125,0,0,-4.498,-4.4984,0,0,0,0,0,0,0,0,-4.463,-4.4648,-4.4785,-4.4785,-4.4783,-4.486,-4.4861,-4.4993,-4.4838,-4.4816,-4.4824,-4.4817,-4.4915,-4.4925,-4.4959,-4.5131,-4.5135,-4.4981,-4.4987,-4.4991,-4.4993,0,0,0,0,0,0,0,-4.4622,-4.4642,-4.4856,-4.4787,-4.4786,-4.4762,-4.4773,-4.4886,-4.4896,-4.4817,-4.4811,-4.4826,-4.4913,-4.495,-4.4961,-4.5137,-4.498,-4.4989,-4.4995,-4.4999,-4.5456,-4.5462,0,0,0,0,0,0,-4.4617,-4.4636,-4.4852,-4.4859,-4.4691,-4.4772,-4.4785,-4.4841,-4.4894,-4.4897,-4.483,-4.4821,-4.4936,-4.4949,-4.4964,-4.5172,-4.4991,-4.5,-4.5005,-4.545,-4.5457,-4.5464,0,0,0,0,0,0,-4.4611,-4.4637,-4.4848,-4.4746,-4.4771,-4.4784,-4.4848,-4.4846,-4.4883,-4.4904,-4.4905,-4.4866,-4.4932,-4.4951,-4.5086,-4.5175,-4.5004,-4.5013,-4.5442,-4.5452,-4.5461,-4.5591,0,0,0,0,0,0,-4.4602,-4.4635,-4.4703,-4.4748,-4.4777,-4.4969,-4.4853,-4.4853,-4.4901,-4.4889,-4.4939,-4.4941,-4.4929,-4.5072,-4.5096,-4.5185,-4.5021,-4.5434,-4.5447,-4.5458,-4.5579,-4.5604,-4.5625,0,0,0,0,0,-4.4592,-4.4735,-4.4707,-4.4734,-4.4863,-4.4975,-4.4991,-4.4975,-4.4908,-4.4976,-4.4989,-4.494,-4.5161,-4.5086,-4.5112,-4.5207,-4.5429,-4.5443,-4.5457,-4.5568,-4.5599,-4.5624,0,0,0,0,0,0,-4.47,-4.4741,-4.471,-4.4872,-4.4921,-4.4959,-4.5044,-4.5008,-4.5075,-4.5062,-4.5037,-4.5049,-4.5192,-4.5212,-4.5128,-4.5378,-4.5284,-4.5304,-4.536,-4.5389,-4.5412,-4.5404,-4.5029,0,0,0,0,0,-4.4743,-4.4832,-4.4862,-4.5002,-4.5028,-4.5032,-4.508,-4.5064,-4.5112,-4.5132,-4.5155,-4.5204,-4.5284,-4.5337,-4.5412,-4.5581,-4.5589,-4.5658,-4.5681,-4.57,-4.5718,-4.5807,-4.5838,-4.551,-4.551,-4.551,0,0,-4.4832,-4.4865,-4.4923,-4.5024,-4.506,-4.5151,-4.505,-4.5151,-4.5218,-4.5147,-4.5277,-4.5295,-4.5347,-4.5499,-4.5568,-4.5521,-4.581,-4.5718,-4.5733,-4.5741,-4.5825,-4.5855,-4.5883,-4.552,-4.5518,-4.5517,0,0,-4.5041,-4.5075,-4.5195,-4.5233,-4.5288,-4.529,-4.5319,-4.5363,-4.5373,-4.5502,-4.545,-4.5528,-4.5668,-4.5706,-4.5744,-4.5966,-4.5922,-4.5991,-4.6112,-4.6199,-4.6225,-4.6247,-4.6326,-4.6354,-4.6008,-4.6008,-4.6009,0,-4.5144,-4.5281,-4.5261,-4.5366,-4.5412,-4.5352,-4.5472,-4.5509,-4.5586,-4.5618,-4.5565,-4.5737,-4.5768,-4.5928,-4.5982,-4.6015,-4.6046,-4.5986,-4.6223,-4.6245,-4.6266,-4.6341,-4.637,-4.6016,-4.6016,-4.6015,-4.6014,0,-4.5405,-4.5501,-4.559,-4.5667,-4.5722,-4.5835,-4.583,-4.5888,-4.5866,-4.5873,-4.6004,-4.6039,-4.6119,-4.6155,-4.6135,-4.6312,-4.6282,-4.6226,-4.6131,-4.6306,-4.6375,-4.6403,-4.6028,-4.6025,-4.6023,-4.6021,0,0,-4.5687,-4.575,-4.5783,-4.5817,-4.5872,-4.5945,-4.6053,-4.6133,-4.6182,-4.6237,-4.6326,-4.6444,-4.6393,-4.6436,-4.6418,-4.6495,-4.6667,-4.643,-4.643,-4.6472,-4.6863,-4.6905,-4.6939,-4.6638,-4.6643,-4.6648,-4.6859,0,-4.5898,-4.6088,-4.6073,-4.6252,-4.6339,-4.6282,-4.6376,-4.6419,-4.6428,-4.6502,-4.651,-4.6594,-4.652,-4.6546,-4.6619,-4.6631,-4.6745,-4.6615,-4.672,-4.6724,-4.6709,-4.6975,-4.702,-4.7218,-4.6886,-4.6891,-4.6894,0,-4.6171,-4.6235,-4.6424,-4.6465,-4.65,-4.6586,-4.6656,-4.6728,-4.6775,-4.6775,-4.6823,-4.6792,-4.6899,-4.6801,-4.6947,-4.6859,-4.69,-4.6912,-4.6919,-4.6929,-4.682,-4.6992,-4.7281,-4.7311,-4.6937,-4.6933,-4.693,0,-4.6357,-4.6491,-4.662,-4.665,-4.6702,-4.6762,-4.6786,-4.6828,-4.6876,-4.6937,-4.6968,-4.704,-4.708,-4.7136,-4.7124,-4.7054,-4.7273,-4.7175,-4.7276,-4.7276,-4.7325,-4.7323,-4.7625,-4.7352,-4.7351,-4.7351,-4.735,0,-4.6595,-4.6712,-4.6704,-4.6784,-4.6913,-4.6893,-4.702,-4.7036,-4.7073,-4.7154,-4.7108,-4.7185,-4.7165,-4.724,-4.7231,-4.7353,-4.7371,-4.7374,-4.737,-4.7378,-4.7378,-4.7406,-4.7392,-4.7359,-4.7357,-4.7355,-4.7354,0,-4.6826,-4.6825,-4.6963,-4.7,-4.7011,-4.7105,-4.7135,-4.721,-4.7213,-4.7316,-4.7339,-4.7345,-4.7431,-4.7424,-4.7521,-4.7515,-4.7665,-4.7645,-4.765,-4.7646,-4.7747,-4.7738,-4.8079,-4.8122,-4.782,-4.7823,-4.7826,0,-4.6978,-4.7067,-4.7113,-4.7165,-4.7193,-4.7276,-4.7325,-4.7307,-4.7359,-4.7418,-4.7485,-4.7567,-4.7631,-4.777,-4.7783,-4.7856,-4.7837,-4.7951,-4.7848,-4.7853,-4.7838,-4.7834,-4.7842,-4.7972,-4.7975,-4.7978,-4.798,0,-4.7248,-4.7243,-4.7316,-4.7389,-4.7449,-4.7505,-4.7556,-4.76,-4.7587,-4.7648,-4.7736,-4.7786,-4.7884,-4.7965,-4.8034,-4.8056,-4.8017,-4.8013,-4.804,-4.8049,-4.8049,-4.805,-4.7706,-4.8005,-4.8003,-4.8001,-4.8,-4.7999,-4.7445,-4.752,-4.7565,-4.7647,-4.7683,-4.7732,-4.7803,-4.7816,-4.7889,-4.7968,-4.7953,-4.8051,-4.8093,-4.8182,-4.8211,-4.8286,-4.8245,-4.8284,-4.8294,-4.8305,-4.8316,-4.8036,-4.8298,-4.8297,-4.8297,-4.8296,-4.8296,0,-4.7712,-4.7738,-4.7814,-4.7887,-4.7951,-4.7908,-4.7961,-4.8018,-4.8105,-4.8148,-4.8212,-4.8312,-4.839,-4.8408,-4.8482,-4.8538,-4.8522,-4.8558,-4.8554,-4.856,-4.8349,-4.8318,-4.8571,-4.8571,-4.8571,-4.857,-4.857,-4.857,-4.7859,-4.7985,-4.7985,-4.8128,-4.8151,-4.8248,-4.8282,-4.8326,-4.836,-4.8474,-4.8539,-4.855,-4.8582,-4.8658,-4.8727,-4.873,-4.8759,-4.8804,-4.88,-4.8602,-4.8575,-4.8549,-4.8519,-4.881,-4.8811,-4.9004,-4.9006,-4.9007]}]]